This demonstration page uses our WeatherBlox Daily Observations layout. Learn more.

Left ArrowRight Arrow

39.51506, -84.39828

Hourly Observations for May 12, 2015

Temp ( °F °C ) Dew Point ( °F °C ) Humidity (%) Winds ( mph kmh ) Pressure ( in mb ) Visibility ( mi km ) Precip ( " mm )
12:15 am 00:15 Partly Cloudy 64 18 60 15.7 87 87 WSW 3 6 29.94 1014 10 16 0.00 0.00
12:35 am 00:35 Clear 62 16.9 59 14.9 88 88 WSW 6 9 29.97 1015 10 16 0.00 0.00
12:55 am 00:55 Clear 63 17 59 15 88 88 SW 7 11 29.97 1015 10 16 0.00 0.00
1:15 am 01:15 Clear 63 17.3 59 15.2 88 88 SW 7 11 29.97 1015 10 16 0.00 0.00
1:35 am 01:35 Clear 63 17.3 59 15.1 87 87 SW 6 9 29.97 1015 10 16 0.00 0.00
1:55 am 01:55 Clear 64 17.9 60 15.6 87 87 SW 7 11 29.97 1015 10 16 0.00 0.00
2:15 am 02:15 Clear 64 18 60 15.6 86 86 WSW 7 11 29.97 1015 10 16 0.00 0.00
2:35 am 02:35 Clear 64 18 60 15.5 85 85 WSW 7 11 29.97 1015 10 16 0.00 0.00
2:55 am 02:55 Clear 63 17.2 58 14.7 85 85 SW 7 11 29.97 1015 10 16 0.00 0.00
3:15 am 03:15 Clear 62 16.6 58 14.3 86 86 SW 7 11 29.97 1015 10 16 0.00 0.00
3:35 am 03:35 Clear 62 16.6 58 14.5 88 88 SW 8 13 29.97 1015 10 16 0.00 0.00
3:55 am 03:55 Clear 62 16.6 58 14.5 88 88 SW 7 11 29.97 1015 10 16 0.00 0.00
4:15 am 04:15 Clear 62 16.6 58 14.5 88 88 SW 7 11 29.97 1015 10 16 0.00 0.00
4:35 am 04:35 Mostly Cloudy 62 16.6 57 13.8 84 84 WNW 10 17 30.00 1016 10 16 0.00 0.00
4:55 am 04:55 Mostly Cloudy 61 16 51 10.5 70 70 NW 12 19 30.00 1016 10 16 0.00 0.00
5:15 am 05:15 Partly Cloudy 60 15.3 50 9.9 70 70 WNW 7 11 30.03 1017 10 16 0.00 0.00
5:35 am 05:35 Clear 60 15.3 50 10 71 71 WNW 6 9 30.06 1018 10 16 0.00 0.00
5:55 am 05:55 Clear 58 14.5 48 9 70 70 WNW 6 9 30.06 1018 10 16 0.00 0.00
6:15 am 06:15 Clear 57 13.8 47 8.6 71 71 W 3 6 30.06 1018 10 16 0.00 0.00
6:35 am 06:35 Sunny 57 13.8 47 8.6 71 71 Calm 30.06 1018 10 16 0.00 0.00
6:55 am 06:55 Sunny 56 13.3 48 9.1 76 76 WSW 3 6 30.06 1018 10 16 0.00 0.00
7:15 am 07:15 Sunny 57 13.8 50 10.1 79 79 SW 6 9 30.09 1019 10 16 0.00 0.00
7:35 am 07:35 Sunny 59 14.9 50 10.2 74 74 SW 7 11 30.09 1019 10 16 0.00 0.00
7:55 am 07:55 Sunny 60 15.3 49 9.2 67 67 WSW 10 17 30.09 1019 10 16 0.00 0.00
8:15 am 08:15 Sunny 60 15.3 47 8.1 62 62 WSW 10 17 30.09 1019 10 16 0.00 0.00
8:35 am 08:35 Sunny 60 15.3 45 7 58 58 W 15 24 30.12 1020 10 16 0.00 0.00
8:55 am 08:55 Sunny 60 15.3 40 4.6 49 49 W 22 35 30.12 1020 10 16 0.00 0.00
9:15 am 09:15 Sunny 61 16 42 5.7 51 51 W 15 24 30.12 1020 10 16 0.00 0.00
9:35 am 09:35 Sunny 61 16 40 4.5 47 47 WSW 18 30 30.12 1020 10 16 0.00 0.00
9:55 am 09:55 Sunny 61 16 39 3.7 44 44 W 18 30 30.12 1020 10 16 0.00 0.00
10:15 am 10:15 Sunny 62 16.6 39 4.1 44 44 WSW 16 26 30.09 1019 10 16 0.00 0.00
10:35 am 10:35 Sunny 63 17 39 3.7 41 41 WSW 18 30 30.09 1019 10 16 0.00 0.00
10:55 am 10:55 Sunny 63 17.2 39 3.8 41 41 W 17 28 30.09 1019 10 16 0.00 0.00
11:15 am 11:15 Sunny 64 18 40 4.2 40 40 W 21 33 30.09 1019 10 16 0.00 0.00
11:35 am 11:35 Partly Cloudy 65 18.1 40 4.6 41 41 WSW 20 31 30.09 1019 10 16 0.00 0.00
11:55 am 11:55 Partly Cloudy 65 18.6 41 5.2 42 42 WSW 16 26 30.09 1019 10 16 0.00 0.00
12:15 pm 12:15 Partly Cloudy 69 20.4 43 5.9 39 39 WSW 15 24 30.09 1019 10 16 0.00 0.00
12:35 pm 12:35 Partly Cloudy 69 20.8 44 6.4 39 39 W 17 28 30.09 1019 10 16 0.00 0.00
12:55 pm 12:55 Sunny 69 20.8 44 6.4 39 39 W 17 28 30.09 1019 10 16 0.00 0.00
1:15 pm 13:15 Partly Cloudy 69 20.8 43 6.1 39 39 W 21 33 30.09 1019 10 16 0.00 0.00
1:35 pm 13:35 Partly Cloudy 69 20.8 41 5.1 36 36 W 16 26 30.09 1019 10 16 0.00 0.00
1:55 pm 13:55 Partly Cloudy 69 20.8 40 4.7 35 35 W 20 31 30.09 1019 10 16 0.00 0.00
2:15 pm 14:15 Partly Cloudy 69 20.8 43 6.1 39 39 W 18 30 30.09 1019 10 16 0.00 0.00
2:35 pm 14:35 Partly Cloudy 69 20.8 44 6.7 40 40 WNW 13 20 30.09 1019 10 16 0.00 0.00
2:55 pm 14:55 Partly Cloudy 69 20.8 43 6 38 38 W 17 28 30.09 1019 10 16 0.00 0.00
3:15 pm 15:15 Partly Cloudy 69 20.8 42 5.6 37 37 W 13 20 30.09 1019 10 16 0.00 0.00
3:35 pm 15:35 Partly Cloudy 69 20.8 40 4.4 34 34 W 21 33 30.12 1020 10 16 0.00 0.00
3:55 pm 15:55 Partly Cloudy 69 20.8 40 4.4 34 34 W 21 33 30.12 1020 10 16 0.00 0.00
4:15 pm 16:15 Partly Cloudy 69 20.8 43 5.9 38 38 WNW 9 15 30.12 1020 10 16 0.00 0.00
4:35 pm 16:35 Mostly Cloudy 69 20.8 43 6.2 39 39 W 15 24 30.12 1020 10 16 0.00 0.00
4:55 pm 16:55 Partly Cloudy 69 20.8 42 5.5 37 37 W 16 26 30.12 1020 10 16 0.00 0.00
5:15 pm 17:15 Partly Cloudy 69 20.8 42 5.5 37 37 WNW 18 30 30.12 1020 10 16 0.00 0.00
5:35 pm 17:35 Partly Cloudy 69 20.8 42 5.5 37 37 W 18 30 30.12 1020 10 16 0.00 0.00
5:55 pm 17:55 Partly Cloudy 67 19.5 41 4.9 38 38 WNW 18 30 30.15 1021 10 16 0.00 0.00
6:15 pm 18:15 Partly Cloudy 66 18.9 40 4.7 39 39 WNW 15 24 30.15 1021 10 16 0.00 0.00
6:35 pm 18:35 Partly Cloudy 64 18 39 3.9 39 39 WNW 17 28 30.15 1021 10 16 0.00 0.00
6:55 pm 18:55 Partly Cloudy 63 17.2 39 3.9 41 41 WNW 12 19 30.15 1021 10 16 0.00 0.00
7:15 pm 19:15 Mostly Cloudy 63 17 39 4.1 43 43 W 9 15 30.15 1021 10 16 0.00 0.00
7:35 pm 19:35 Mostly Cloudy 63 17.1 39 3.9 42 42 W 12 19 30.21 1023 10 16 0.00 0.00
7:55 pm 19:55 Partly Cloudy 62 16.6 39 3.9 43 43 WNW 9 15 30.21 1023 10 16 0.00 0.00
8:15 pm 20:15 Partly Cloudy 62 16.4 40 4.2 45 45 NW 8 13 30.21 1023 10 16 0.00 0.00
8:35 pm 20:35 Partly Cloudy 60 15.3 41 5.1 51 51 NNW 9 15 30.21 1023 10 16 0.00 0.00
8:55 pm 20:55 Partly Cloudy 60 15.3 42 5.6 53 53 NNW 8 13 30.24 1024 10 16 0.00 0.00
9:15 pm 21:15 Partly Cloudy 60 15.3 42 5.8 53 53 NNW 8 13 30.24 1024 10 16 0.00 0.00
9:35 pm 21:35 Partly Cloudy 57 13.8 40 4.7 54 54 NNW 5 7 30.24 1024 10 16 0.00 0.00
9:55 pm 21:55 Partly Cloudy 57 13.8 42 5.6 58 58 N 3 6 30.24 1024 10 16 0.00 0.00
10:15 pm 22:15 Clear 57 13.8 42 5.8 59 59 N 3 6 30.27 1025 10 16 0.00 0.00
10:35 pm 22:35 Partly Cloudy 55 12.5 42 5.7 64 64 N 3 6 30.27 1025 10 16 0.00 0.00
10:55 pm 22:55 Partly Cloudy 55 12.5 45 7.3 71 71 N 3 6 30.27 1025 10 16 0.00 0.00
11:15 pm 23:15 Mostly Cloudy 52 11 44 6.7 75 75 Calm 30.27 1025 10 16 0.00 0.00
11:35 pm 23:35 Mostly Cloudy 55 12.5 46 8 74 74 Calm 30.27 1025 10 16 0.00 0.00
11:55 pm 23:55 Mostly Cloudy 52 11 46 7.5 79 79 Calm 30.27 1025 10 16 0.00 0.00

Powered by AerisWeather